Weather History for Roswell, NM

Change the Weather History Date:

Tuesday, May 21, 2013

  Actual Average Record
Temperature  
Mean Temperature 73 °F 72 °F  
Max Temperature 84 °F 87 °F 104 °F (1989)
Min Temperature 61 °F 56 °F 37 °F (1960)
Degree Days  
Heating Degree Days 0 0  
Month to date heating degree days 51 27  
Since 1 July heating degree days 2984 3285  
Cooling Degree Days 8 7  
Month to date cooling degree days 100 100  
Year to date cooling degree days 166 140  
Growing Degree Days 22 (Base 50)    
Moisture  
Dew Point 34 °F    
Average Humidity 30    
Maximum Humidity 44    
Minimum Humidity 16    
Precipitation  
Precipitation 0.00 in 0.04 in 1.68 in (1941)
Month to date precipitation 0.03 0.83  
Year to date precipitation 0.47 2.75  
Sea Level Pressure  
Sea Level Pressure 29.73 in    
Wind  
Wind Speed 9 mph (NE)    
Max Wind Speed 24 mph    
Max Gust Speed 31 mph    
Visibility 10 miles    
Events      
T = Trace of Precipitation, MM = Missing Value Source: NWS Daily Summary

Daily Weather History Graph

Daily Weather History Graph

Search for Another Location

Airport:

Trip Planner

Search our weather history database for the weather conditions in past years. The results will help you decide how hot, cold, wet, or windy it might be!

Date:

Astronomy

May. 21, 2013 Rise Set
Actual Time 5:54 AM MDT 7:55 PM MDT
Civil Twilight 5:26 AM MDT 8:23 PM MDT
Nautical Twilight 4:52 AM MDT 8:57 PM MDT
Astronomical Twilight 4:16 AM MDT 9:33 PM MDT
Moon 4:21 PM MDT (5/21) 3:11 AM MDT (5/21)
Length of Visible Light 14h 57m
Length of Day
14h 01m
Waxing Gibbous, 84% of the Moon is Illuminated
May 21
Waxing Gibbous
May 24
Full
May 31
Last Quarter
Jun 8
New
Jun 16
First Quarter

Hourly Weather History & Observations

Time (MDT) Temp. Dew Point Humidity Pressure Visibility Wind Dir Wind Speed Gust Speed Precip Events Conditions
12:51 AM 72.0 °F 28.9 °F 20% 29.69 in 10.0 mi NNW 20.7 mph 32.2 mph N/A   Clear
1:51 AM 71.1 °F 28.0 °F 20% 29.68 in 10.0 mi North 18.4 mph 26.5 mph N/A   Clear
2:51 AM 71.1 °F 26.1 °F 19% 29.66 in 10.0 mi North 13.8 mph - N/A   Clear
3:51 AM 69.1 °F 33.1 °F 26% 29.69 in 10.0 mi NNE 18.4 mph 25.3 mph N/A   Clear
4:51 AM 64.9 °F 37.9 °F 37% 29.73 in 10.0 mi NE 5.8 mph - N/A   Clear
5:51 AM 63.0 °F 37.0 °F 38% 29.75 in 10.0 mi WNW 4.6 mph - N/A   Clear
6:51 AM 62.1 °F 39.9 °F 44% 29.79 in 10.0 mi North 12.7 mph - N/A   Clear
7:51 AM 64.9 °F 42.1 °F 43% 29.81 in 10.0 mi North 13.8 mph - N/A   Clear
8:51 AM 66.9 °F 42.1 °F 40% 29.83 in 10.0 mi NNE 12.7 mph - N/A   Clear
9:51 AM 69.1 °F 42.1 °F 38% 29.82 in 10.0 mi North 9.2 mph - N/A   Clear
10:51 AM 72.0 °F 41.0 °F 33% 29.83 in 10.0 mi Variable 6.9 mph - N/A   Clear
11:51 AM 75.0 °F 39.0 °F 27% 29.81 in 10.0 mi North 11.5 mph 16.1 mph N/A   Clear
12:51 PM 78.1 °F 37.0 °F 23% 29.78 in 10.0 mi Variable 6.9 mph - N/A   Clear
1:51 PM 79.0 °F 36.0 °F 21% 29.76 in 10.0 mi Variable 5.8 mph - N/A   Clear
2:51 PM 79.0 °F 35.1 °F 20% 29.73 in 10.0 mi Calm Calm - N/A   Clear
3:51 PM 82.0 °F 34.0 °F 18% 29.69 in 10.0 mi South 4.6 mph - N/A   Clear
4:51 PM 82.9 °F 34.0 °F 17% 29.68 in 10.0 mi ESE 9.2 mph - N/A   Clear
5:51 PM 82.9 °F 33.1 °F 17% 29.67 in 10.0 mi SE 13.8 mph 20.7 mph N/A   Clear
6:51 PM 82.9 °F 32.0 °F 16% 29.66 in 10.0 mi ESE 10.4 mph - N/A   Clear
7:51 PM 81.0 °F 30.0 °F 16% 29.67 in 10.0 mi SSE 8.1 mph - N/A   Clear
8:51 PM 75.9 °F 32.0 °F 20% 29.69 in 10.0 mi SSE 4.6 mph - N/A   Clear
9:51 PM 73.9 °F 30.9 °F 21% 29.70 in 10.0 mi SSE 6.9 mph - N/A   Clear
10:51 PM 66.9 °F 28.0 °F 23% 29.72 in 10.0 mi South 5.8 mph - N/A   Clear
11:51 PM 64.9 °F 28.0 °F 25% 29.71 in 10.0 mi SSW 5.8 mph - N/A   Clear